Temp
54 55 54 54 55 54 54 54 53 53 54 54 54 55 58 60 60 60 59 58 58 59
52 51 51 50 51 51 51 53 51 51 51 51 52 53 55 56 55 56 55 55 56 55
49 49 49 49 48 48 49 49 49 49 49 49 49 50 51 51 53 52 51 51 51 50
47 46 46 46 46 46 46 46 47 47 47 47 47 48 49 48 48 48 47 47 46 45
45 45 44 44 44 45 44 45 45 45 45 45 45 45 46 45 45 45 45 45 46 45
43 43 43 42 43 43 43 43 44 44 43 42 42 43 44 44 44 43 44 44 43 43
42 42 44 42 43 43 43 43 43 43 43 42 41 41 42 42 41 41 41 41 42 42
42 45 44 43 43 43 43 43 44 43 43 43 42 41 40 40 40 39 38 39 40 41
43 43 43 42 41 41 41 41 42 42 41 41 43 43 42 40 39 39 38 36 37 38
42 41 40 40 39 39 39 39 39 40 41 40 41 42 42 38 36 34 33 33 34 35
41 40 39 38 38 37 38 37 36 37 39 40 41 41 39 36 31 30 30 31 32 35
40 38 38 37 36 36 36 35 34 33 32 33 37 40 39 33 32 31 32 34 36 38
40 38 36 36 35 35 35 33 33 31 30 36 34 40 39 35 35 34 35 35 35 38
39 38 36 35 34 33 32 30 29 30 31 33 35 37 40 38 36 35 34 35 34 35
MSLP
1019.77 1019.76 1019.90 1020.03 1020.09 1020.13 1020.11 1020.08 1020.04 1019.90 1019.76 1019.62 1019.41 1019.07 1018.60 1018.34 1018.25 1018.12 1018.11 1018.13 1018.31 1018.38
1020.24 1020.29 1020.34 1020.44 1020.52 1020.60 1020.60 1020.35 1020.26 1020.16 1020.01 1019.83 1019.55 1019.23 1018.85 1018.74 1018.64 1018.49 1018.41 1018.30 1018.27 1018.48
1020.67 1020.79 1020.80 1020.83 1020.89 1020.96 1020.91 1020.78 1020.57 1020.39 1020.27 1020.10 1019.87 1019.57 1019.27 1019.20 1019.17 1019.07 1019.07 1019.06 1019.04 1019.24
1020.80 1020.97 1021.09 1021.11 1021.14 1021.08 1021.02 1020.95 1020.84 1020.69 1020.49 1020.38 1020.18 1019.95 1019.76 1019.67 1019.70 1019.78 1019.84 1019.84 1019.89 1020.08
1020.92 1021.11 1021.22 1021.41 1021.40 1021.29 1021.18 1021.13 1021.08 1020.99 1020.85 1020.78 1020.65 1020.58 1020.52 1020.30 1020.37 1020.41 1020.45 1020.66 1020.62 1020.78
1021.15 1021.45 1021.21 1021.60 1021.68 1021.56 1021.43 1021.37 1021.27 1021.31 1021.20 1021.14 1021.05 1020.89 1020.92 1020.88 1020.90 1021.03 1021.09 1021.30 1021.36 1021.33
1021.27 1021.60 1021.36 1021.43 1021.79 1021.79 1021.72 1021.49 1021.76 1021.67 1021.52 1021.47 1021.45 1021.29 1021.21 1021.46 1021.46 1021.73 1021.69 1021.59 1021.89 1021.89
1021.33 1021.40 1021.24 1021.47 1021.60 1021.86 1021.77 1021.53 1021.94 1021.98 1021.89 1021.86 1021.73 1021.54 1021.60 1021.85 1021.85 1022.22 1021.99 1022.20 1022.33 1022.39
1021.18 1021.28 1021.46 1021.56 1021.48 1021.94 1021.87 1021.82 1022.17 1021.93 1022.07 1022.36 1022.04 1021.86 1021.90 1021.87 1022.27 1022.46 1022.53 1022.90 1023.07 1023.02
1021.02 1021.23 1021.65 1021.65 1021.64 1021.86 1022.06 1022.18 1022.52 1022.21 1022.49 1022.61 1022.63 1022.33 1022.25 1022.34 1022.75 1022.97 1023.34 1023.54 1023.53 1023.61
1020.86 1021.25 1021.65 1021.70 1021.77 1022.07 1022.31 1022.61 1022.62 1022.65 1022.73 1023.05 1022.95 1022.84 1022.69 1023.04 1023.32 1023.72 1023.98 1023.97 1023.94 1023.92
1020.72 1021.16 1021.52 1021.70 1021.93 1022.21 1022.56 1022.75 1022.97 1023.32 1023.35 1023.57 1023.30 1023.03 1023.14 1023.55 1023.95 1024.19 1024.27 1024.27 1024.20 1023.96
1020.62 1020.97 1021.36 1021.65 1022.02 1022.42 1022.76 1022.99 1023.37 1023.66 1023.71 1023.62 1023.39 1023.20 1023.39 1023.90 1023.99 1024.13 1024.26 1024.41 1024.33 1023.86
1020.54 1020.83 1021.23 1021.71 1022.14 1022.57 1023.04 1023.36 1023.68 1023.77 1023.70 1023.61 1023.61 1023.32 1023.21 1023.33 1023.68 1023.83 1024.07 1024.32 1024.42 1024.32
Wind_Speed
3 2 2 3 2 2 2 2 4 4 4 5 5 4 4 3 2 3 3 4 5 4
4 4 3 4 3 2 3 2 4 4 4 5 6 6 5 3 3 3 4 3 2 3
4 4 3 3 3 2 2 3 3 3 4 4 5 5 5 4 5 4 4 3 5 5
4 4 3 3 2 2 2 3 3 3 4 4 5 5 5 6 5 6 5 6 5 6
4 3 3 3 3 3 3 3 3 4 4 5 5 5 5 7 6 6 7 6 6 5
4 3 4 3 3 3 3 4 4 5 5 5 5 5 5 6 7 7 7 6 6 5
5 4 4 5 3 3 4 5 5 5 5 6 6 6 6 6 8 7 7 7 7 7
5 4 4 5 4 3 4 4 4 5 6 5 5 4 6 7 8 7 8 8 8 6
5 4 4 5 5 4 4 5 5 6 7 5 5 11 12 9 7 7 8 7 6 7
6 5 4 4 5 5 4 5 5 6 7 7 6 11 12 12 7 7 6 5 5 5
6 6 5 5 5 5 4 5 4 5 6 6 6 11 14 13 7 6 5 4 4 4
7 7 7 6 6 5 5 4 4 4 4 4 4 10 11 8 5 5 4 3 2 3
7 7 6 6 6 3 4 5 4 5 3 5 3 8 8 6 3 4 3 2 2 1
7 7 7 6 3 4 5 5 4 4 3 3 2 2 9 9 4 3 3 2 1 1
Wind_Direction
70 87 75 49 59 51 37 24 6 5 12 5 354 347 334 326 323 259 228 204 207 210
74 81 88 73 64 49 16 6 20 21 19 14 10 8 1 17 14 51 46 49 102 106
95 85 85 86 70 40 18 10 18 34 34 30 25 20 31 28 21 59 43 42 71 67
91 77 69 70 43 28 26 15 29 35 50 44 38 31 53 56 48 67 66 56 69 64
113 100 84 54 31 22 39 39 43 54 62 56 53 48 62 74 64 71 70 62 68 66
130 137 113 92 61 59 73 66 66 71 69 63 59 71 75 93 88 82 78 69 68 65
159 162 147 130 125 86 91 90 81 77 76 73 69 76 83 92 94 91 79 77 77 78
176 168 144 148 145 145 135 115 104 91 82 81 94 94 100 99 98 95 85 65 59 52
181 163 160 154 143 139 117 105 108 101 97 80 94 106 105 100 94 88 87 83 61 50
175 164 164 146 136 133 124 111 102 101 114 104 101 106 105 95 90 89 85 87 79 68
167 161 162 154 144 134 126 121 103 98 102 109 112 116 109 103 94 96 95 92 95 101
169 165 166 158 146 138 132 111 96 101 102 108 109 113 112 105 110 102 97 88 93 96
171 165 161 155 150 136 130 121 131 127 125 137 108 132 138 139 124 119 122 93 47 54
167 159 152 143 123 127 134 133 150 152 150 131 156 180 152 137 141 134 132 143 157 331